Simultaneous Nadir Overpasses (SNOs) Predictions

Prediction of SNOs between METOP-A and NOAA-19 Satellite Orbit:

Table of predicted SNOs for the next 14.0 days since TLE Epoch: 8/26/2012
Index Date (METOP-A) Time (METOP-A) METOP-A Lat,Lon Date (NOAA-19) Time (NOAA-19) NOAA-19 Lat,Lon Distance(km) Time Diff (sec)
1 09/02/2012 12:06:08 73.14, -8.82 09/02/2012 12:04:57 73.18, -8.81 3.59 71
2 09/02/2012 12:56:49 -73.18, 158.58 09/02/2012 12:55:53 -73.17, 158.47 3.53 56
3 09/02/2012 13:47:30 73.13, -34.20 09/02/2012 13:47:01 73.12, -34.21 0.43 29
4 09/02/2012 14:38:12 -73.11, 133.09 09/02/2012 14:37:57 -73.11, 133.08 0.67 15
5 09/02/2012 15:28:53 73.05, -59.69 09/02/2012 15:29:05 73.07, -59.61 3.09 12
6 09/02/2012 16:19:35 -73.04, 107.60 09/02/2012 16:20:01 -73.06, 107.68 3.45 26
7 09/02/2012 17:10:15 73.03, -85.08 09/02/2012 17:11:10 73.06, -85.12 3.20 55
8 09/02/2012 18:00:57 -73.02, 82.21 09/02/2012 18:02:05 -73.00, 82.28 2.70 68




NCC Satellite Simultaneous Nadir Overpasses (SNOs) Prediction Service
